Regional Weather Roundup
Issued by NWS

Home | Current Version | Previous Version | Text Only | Print | Product List | Glossary Off
Versions: 1 2 3 4 5 6 7 8 9 10 11 12 13 14 15 16 17 18 19 20 21 22 23 24 25 26 27 28 29 30 31 32 33 34 35 36 37 38 39 40 41 42 43 44 45 46 47 48 49 50

000
ASUS43 KDMX 220601
RWRIA

WEATHER ROUNDUP FOR IOWA
NATIONAL WEATHER SERVICE DES MOINES IA
1200 AM CST WED FEB 22 2017

NOTE: "FAIR" INDICATES FEW OR NO CLOUDS BELOW 12,000 FEET WITH NO
SIGNIFICANT WEATHER AND/OR OBSTRUCTIONS TO VISIBILITY.

* - THESE STATIONS ARE NOT NWS STATIONS...THUS NOT UNDER NWS
QUALITY CONTROL.  THEY ALSO DO NOT REPORT WEATHER SUCH
AS PRECIPITATION OR FOG.

IAZ001>003-012>014-020>022-031>034-043>046-220700-
   NORTHWEST IOWA

CITY           SKY/WX    TMP DP  RH WIND       PRES   REMARKS
CARROLL *      CLEAR     52  37  58 SW17      29.73F
CHEROKEE *     PTCLDY    45  37  72 S5        29.70F
DENISON *      CLEAR     48  37  66 S9        29.73S
LE MARS *      CLEAR     46  36  66 S6        29.69F
ORANGE CITY *  CLEAR     46  37  71 S9        29.67F
SHELDON *      PTCLDY    48  39  71 SW12G17   29.64F
SIOUX CITY     PTCLDY    52  36  54 S9        29.69F
6HR MIN TEMP:  44; 6HR MAX TEMP:  66;

SPENCER        CLEAR     46  38  73 S8        29.68F
6HR MIN TEMP:  44; 6HR MAX TEMP:  56;

STORM LAKE *   CLEAR     46  37  71 S9        29.71F
$$

IAZ055>058-069>071-079>083-090>094-220700-
   SOUTHWEST IOWA

CITY           SKY/WX    TMP DP  RH WIND       PRES   REMARKS
ATLANTIC *     CLEAR     46  37  71 S9        29.77S
CLARINDA *     CLEAR     46  36  66 S7        29.82F
COUNCIL BLFS * CLEAR     55  36  47 SW18G25   29.76S
CRESTON *      CLEAR     46  34  61 S12       29.81F
HARLAN  *      CLEAR     46  39  76 S10       29.79S
LAMONI         CLEAR     50  34  54 S12       29.82F
6HR MIN TEMP:  48; 6HR MAX TEMP:  61;

RED OAK *      CLEAR     46  37  71 S6        29.79F
SHENANDOAH *   CLEAR     52  36  54 SW8       29.80S
$$

IAZ047>049-059>061-072>074-084-220700-
   CENTRAL IOWA

CITY           SKY/WX    TMP DP  RH WIND       PRES   REMARKS
AMES           CLEAR     48  36  63 S6        29.76F
6HR MIN TEMP:  48; 6HR MAX TEMP:  55;

ANKENY *       CLEAR     52  34  50 S6        29.78F
BOONE *        CLEAR     50  36  57 SW8G15    29.75F
CHARITON *     CLEAR     48  36  61 S12       29.81F
DES MOINES     CLEAR     50  33  52 S12       29.78F
6HR MIN TEMP:  50; 6HR MAX TEMP:  60;

GRINNELL*      CLEAR     47  35  61 S9        29.80F
KNOXVILLE *    CLEAR     52  32  46 SW10      29.78F
MARSHALLTOWN   CLEAR     46  35  65 S7        29.77F
6HR MIN TEMP:  43; 6HR MAX TEMP:  57;

NEWTON *       PTCLDY    50  34  53 S12       29.78F
PELLA *        CLEAR     50  33  52 S9        29.81F
PERRY *          N/A     45  39  79 S10       29.76S
$$

IAZ004>006-015-016-023>025-035-036-220700-
   NORTH CENTRAL IOWA

CITY           SKY/WX    TMP DP  RH WIND       PRES   REMARKS
ALGONA *       CLEAR     46  39  76 S12       29.70F
CLARION *      CLEAR     41  41 100 S12       29.73S
ESTHERVILLE    CLEAR     38  36  92 S8        29.68F WCI  32
6HR MIN TEMP:  37; 6HR MAX TEMP:  54;

FORT DODGE *   CLEAR     48  37  66 S10G16    29.73F
MASON CITY     CLEAR     43  37  79 S10       29.73F
6HR MIN TEMP:  40; 6HR MAX TEMP:  52;

FOREST CITY *    N/A     41  37  87 S5        29.72S
WEBSTER CITY * CLEAR     46  39  76 S10       29.72S
IOWA FALLS *     N/A     45  37  73 S12       29.75F
$$

IAZ007>011-017>019-026>030-037>042-050>054-066-220700-
   NORTHEAST IOWA

CITY           SKY/WX    TMP DP  RH WIND       PRES   REMARKS
CEDAR RAPIDS   CLEAR     43  40  89 S6        29.80F
6HR MIN TEMP:  43; 6HR MAX TEMP:  56;

CHARLES CITY * CLEAR     43  41  93 S12       29.75F
CLINTON *      CLEAR     46  44  93 S5        29.84F
DECORAH *      CLEAR     50  37  62 S10G17    29.75F
DUBUQUE        CLEAR     42  37  82 S10       29.80F
6HR MIN TEMP:  42; 6HR MAX TEMP:  52;

MONTICELLO *   CLEAR     43  39  87 SE9       29.80F
OELWEIN *      CLEAR     41  37  87 S10       29.78F
WATERLOO       CLEAR     44  34  67 S7        29.76F
6HR MIN TEMP:  44; 6HR MAX TEMP:  55;

$$

IAZ064-065-067-068-078-220700-
   EAST CENTRAL IOWA

CITY           SKY/WX    TMP DP  RH WIND       PRES   REMARKS
DAVENPORT      CLEAR     45  43  93 S6        29.84F
6HR MIN TEMP:  45; 6HR MAX TEMP:  59;

IOWA CITY      CLEAR     40  36  86 CALM      29.84F
6HR MIN TEMP:  40; 6HR MAX TEMP:  58;

MUSCATINE *    CLEAR     43  39  87 CALM      29.84S
QUAD CITIES    CLEAR     46  42  86 CALM      29.83F
6HR MIN TEMP:  44; 6HR MAX TEMP:  60;

$$

IAZ062-063-075>077-085>089-095>099-220700-
   SOUTHEAST IOWA

CITY           SKY/WX    TMP DP  RH WIND       PRES   REMARKS
BURLINGTON     PTCLDY    52  52 100 S8        29.84S FOG
6HR MIN TEMP:  50; 6HR MAX TEMP:  60;

FAIRFIELD *    CLEAR     54  50  87 SW8       29.83R
KEOKUK *       PTCLDY    55  54  94 S8        29.85S FOG
OTTUMWA        CLEAR     46  36  68 S12       29.82S
6HR MIN TEMP:  45; 6HR MAX TEMP:  61;

WASHINGTON *   CLEAR     52  50  93 SW9       29.84S
$$

ABBREVIATIONS USED IN REMARKS
   TC - TEMPERATURES IN CELSIUS
  WCI - WIND CHILL INDEX
   HX - HEAT INDEX
  VSB - VISIBILITY
$$




USA.gov is the U.S. government's official web portal to all federal, state and local government web resources and services.